THOR ABLESTAR R/B, 1508

Orbit data source: Space-Track

THOR ABLESTAR R/B, 1508 is space debris in LEO originally from a launch on Fri, 13 Aug 1965 UTC launched from the Air Force Western Test Range (AFWTR). Debris objects in space refer to the collection of defunct objects orbiting the Earth. Examples of debris include non-operational satellites, rocket bodies, and fragments generated from explosions, collisions, or faulty payload assembly.

Loading next visibility...
Identifier
1508, 1965-065B
Orbit
LEO
Country
Flag of USUS
Related business
Manufacturer
Aerojet
Mission
Spacecraft
Bus & Motor
ABLESTAR, Unknown motor
Mass
~600 kg wet, 600 kg dry
Launch date (UTC)
1965-08-13 (61 years ago)
Launch vehicle
Unknown
Launch site
Air Force Western Test Range (AFWTR)
Object type
Payload
Rocket body
Debris
Shape & HBR
CYL, 2.4 m
Radar Cross Section
Large (>1 m²)

Expand to show TLE details & history
Last TLE update: 23 hours ago

TLE from 23 hours ago
0 THOR ABLESTAR R/B
1 01508U 65065B   26236.18848051  .00000021  00000-0  24037-4 0  9993
2 01508  90.1324 308.5879 0043349 138.4808 250.1447 13.36098337974499
Epoch: 2026-08-24T04:31Z
TLE epoch observation values (Epoch: 2026-08-24T04:31:24.716Z)
Latitude
28.19871°
Longitude
-91.80948°
Altitude
1,138.534 km
Speed
7.281 km/s
True Right ascension
20h 34m 04s
True Declination
28° 03' 47"
Sunlit
Object was in full shadow at epoch
Visualization orbit readout
Latitude
Unknown
Longitude
Unknown
Altitude
Unknown
Speed
Unknown
Apparent Right ascension
Unknown
Apparent Declination
Unknown
Sunlit
N/A
Visualization observer readout
Local Sidereal Time
18:52:04
Azimuth
Unknown
Elevation
Unknown
Doppler factor
Unknown
Orbital elements
Apogee altitude
1,153.426 km
Perigee altitude
1,088.411 km
Semi-major axis
7,499.056 km
Eccentricity
0.00433
Inclination
90.1324°
RAAN
308.5879°
Arg. of periapsis
138.4808°
True anomaly
249.67835°
Mean anomaly
250.1447°
Eccentric anomaly
249.91144°
Mean motion
3.34221 °/min
Orbital period
107.71 mins
BSTAR
0.000024037
Loading maneuver chart data...
Computing Atmospheric mass density...
Loading historical data...
Loading historical data...
Loading historical data...
Loading historical data...
Loading historical data...
Loading historical data...
Loading historical data...

Documentation

Showing up to 5 results
|